STARLINK-35678, 66971

Orbit data source: Space-Track

STARLINK-35678, 66971 is a payload satellite owned by SpaceX/Seattle (US) in LEO that was launched on Mon, 08 Dec 2025 UTC via an FALCON 9 launch vehicle from the Air Force Eastern Test Range (AFETR). Payload-class satellites include a variety of spacecraft equipped with specific instruments for various scientific and technological missions. These include communications satellites like Starlink; space stations such as the ISS; scientific satellites like the Hubble; Earth observation satellites from companies like Planet Labs, Umbra, and HawkEye 360; GPS; miniature CubeSats for education and research; and military/defense satellites.

Loading next visibility...
Identifier
66971, 2025-288N
Orbit
LEO
Country
Flag of USUS
Related business
Manufacturer
SpaceX/Seattle
Mission
Operational Commercial Communications
Bus & Motor
STARLINK V2MO, Unknown motor
Mass
575 kg wet, ~530 kg dry
Launch date (UTC)
2025-12-08 (5 months ago)
Launch vehicle
FALCON 9
Launch site
Air Force Eastern Test Range (AFETR)
Object type
Payload
Rocket body
Debris
Shape & HBR
Box + 2 Pan, 17.7 m
Radar Cross Section
36.964 m²

Expand to show TLE details & history
Last TLE update: 13 hours ago

TLE from 13 hours ago
0 STARLINK-35678
1 66971U 25288N   26129.93145524  .00016547  00000-0  60938-3 0  9999
2 66971  43.0054  37.5808 0001487 278.3643  81.7040 15.27584675 24658
Epoch: 2026-05-09T22:21Z
TLE epoch observation values (Epoch: 2026-05-09T22:21:17.732Z)
Latitude
-0.00004°
Longitude
-165.48493°
Altitude
482.664 km
Speed
7.626 km/s
True Right ascension
02h 30m 19s
True Declination
0° 00' 00"
Sunlit
Object was in daylight at epoch
Visualization orbit readout
Latitude
Unknown
Longitude
Unknown
Altitude
Unknown
Speed
Unknown
Apparent Right ascension
Unknown
Apparent Declination
Unknown
Sunlit
N/A
Visualization observer readout
Local Sidereal Time
19:47:46
Azimuth
Unknown
Elevation
Unknown
Doppler factor
Unknown
Orbital elements
Apogee altitude
486 km
Perigee altitude
483.959 km
Semi-major axis
6,863.116 km
Eccentricity
0.00015
Inclination
43.0054°
RAAN
37.5808°
Arg. of periapsis
278.3643°
True anomaly
81.72086°
Mean anomaly
81.704°
Eccentric anomaly
81.71243°
Mean motion
3.81734 °/min
Orbital period
94.31 mins
BSTAR
0.00060938
Loading maneuver chart data...
Computing Atmospheric mass density...
Loading historical data...
Loading historical data...
Loading historical data...
Loading historical data...
Loading historical data...
Loading historical data...
Loading historical data...

Documentation

Showing up to 5 results
|